• In Belarus
  • List of Countries
  • For 7 days
  • Water Temperature
  • Satellite Maps
  • Weather Map
  • Weather Widgets
  • user-avatar
    Login

    Hourly Weather Porubai

    Today, 21 April, Sunday

    Time Temperature Precipitation Wind Pressure Humidity
    00:00 +9°C° 0 mm 1 mps 760 mmHg 45%
    01:00 +9°C° 0 mm 1 mps 760 mmHg 47%
    02:00 +8°C° 0 mm 1 mps 759 mmHg 48%
    03:00 +8°C° 0 mm 1 mps 759 mmHg 49%
    04:00 +7°C° 0 mm 1 mps 759 mmHg 50%
    05:00 +7°C° 0 mm 1 mps 759 mmHg 52%
    06:00 +8°C° 0 mm 2 mps 759 mmHg 49%
    07:00 +9°C° 0 mm 2 mps 760 mmHg 46%
    08:00 +12°C° 0 mm 2 mps 760 mmHg 43%
    09:00 +12°C° 0 mm 3 mps 760 mmHg 39%
    10:00 +13°C° 0 mm 3 mps 760 mmHg 35%
    11:00 +14°C° 0 mm 3 mps 760 mmHg 31%
    12:00 +14°C° 0 mm 3 mps 760 mmHg 31%
    13:00 +14°C° 0 mm 3 mps 759 mmHg 31%
    14:00 +14°C° 0 mm 3 mps 759 mmHg 31%
    15:00 +14°C° 0 mm 3 mps 759 mmHg 32%
    16:00 +14°C° 0 mm 3 mps 759 mmHg 33%
    17:00 +14°C° 0 mm 3 mps 759 mmHg 34%
    18:00 +13°C° 0 mm 3 mps 759 mmHg 37%
    19:00 +13°C° 0 mm 2 mps 760 mmHg 40%
    20:00 +12°C° 0 mm 2 mps 760 mmHg 42%
    21:00 +12°C° 0 mm 2 mps 760 mmHg 43%
    22:00 +10°C° 0 mm 2 mps 760 mmHg 44%
    23:00 +10°C° 0 mm 2 mps 760 mmHg 45%

    Tomorrow, 22 April, Monday

    Time Temperature Precipitation Wind Pressure Humidity
    00:00 +10°C° 0 mm 2 mps 760 mmHg 46%
    01:00 +10°C° 0 mm 2 mps 761 mmHg 47%
    02:00 +9°C° 0 mm 2 mps 761 mmHg 49%
    03:00 +9°C° 0 mm 2 mps 761 mmHg 52%
    04:00 +8°C° 0 mm 2 mps 761 mmHg 55%
    05:00 +7°C° 0 mm 3 mps 761 mmHg 59%
    06:00 +9°C° 0 mm 3 mps 761 mmHg 54%
    07:00 +10°C° 0 mm 3 mps 761 mmHg 50%
    08:00 +12°C° 0 mm 4 mps 762 mmHg 45%
    09:00 +13°C° 0 mm 4 mps 762 mmHg 42%
    10:00 +14°C° 0 mm 4 mps 762 mmHg 38%
    11:00 +15°C° 0 mm 5 mps 762 mmHg 34%
    12:00 +15°C° 0 mm 5 mps 762 mmHg 35%
    13:00 +15°C° 0 mm 4 mps 762 mmHg 35%
    14:00 +15°C° 0 mm 4 mps 761 mmHg 36%
    15:00 +15°C° 0 mm 4 mps 761 mmHg 38%
    16:00 +14°C° 0 mm 4 mps 761 mmHg 39%
    17:00 +14°C° 0 mm 3 mps 761 mmHg 41%
    18:00 +13°C° 0 mm 3 mps 762 mmHg 44%
    19:00 +13°C° 0 mm 2 mps 762 mmHg 47%
    20:00 +12°C° 0 mm 2 mps 762 mmHg 50%
    21:00 +12°C° 0 mm 2 mps 762 mmHg 52%
    22:00 +10°C° 0 mm 2 mps 762 mmHg 54%
    23:00 +9°C° 0 mm 2 mps 763 mmHg 56%

    Day after tomorrow, 23 April, Tuesday

    Time Temperature Precipitation Wind Pressure Humidity
    00:00 +9°C° 0 mm 2 mps 763 mmHg 57%
    01:00 +11°C° 0 mm 1 mps 763 mmHg 57%
    02:00 +11°C° 0 mm 1 mps 763 mmHg 58%
    03:00 +9°C° 0 mm 2 mps 763 mmHg 60%
    04:00 +9°C° 0 mm 2 mps 763 mmHg 62%
    05:00 +9°C° 0 mm 2 mps 763 mmHg 65%
    06:00 +10°C° 0 mm 2 mps 764 mmHg 62%
    07:00 +12°C° 0 mm 2 mps 764 mmHg 60%
    08:00 +13°C° 0 mm 2 mps 764 mmHg 57%
    09:00 +14°C° 0 mm 2 mps 764 mmHg 51%
    10:00 +14°C° 0 mm 3 mps 764 mmHg 45%
    11:00 +16°C° 0 mm 3 mps 764 mmHg 39%
    12:00 +17°C° 0 mm 3 mps 764 mmHg 38%
    13:00 +17°C° 0 mm 3 mps 764 mmHg 38%
    14:00 +17°C° 0 mm 3 mps 764 mmHg 37%
    15:00 +17°C° 0 mm 2 mps 764 mmHg 39%
    16:00 +16°C° 0 mm 2 mps 763 mmHg 42%
    17:00 +16°C° 0 mm 2 mps 763 mmHg 44%
    18:00 +15°C° 0 mm 2 mps 764 mmHg 46%
    19:00 +14°C° 0 mm 2 mps 764 mmHg 48%
    20:00 +13°C° 0 mm 2 mps 764 mmHg 50%
    21:00 +13°C° 0 mm 1 mps 764 mmHg 50%
    22:00 +13°C° 0 mm 1 mps 764 mmHg 51%
    23:00 +12°C° 0 mm 1 mps 764 mmHg 51%

    24 April, Wednesday

    Time Temperature Precipitation Wind Pressure Humidity
    00:00 +12°C° 0 mm 1 mps 764 mmHg 53%
    01:00 +11°C° 0 mm 1 mps 764 mmHg 54%
    02:00 +9°C° 0 mm 0 mps 765 mmHg 55%
    03:00 +9°C° 0 mm 0 mps 765 mmHg 56%
    04:00 +9°C° 0 mm 0 mps 765 mmHg 57%
    05:00 +9°C° 0 mm 0 mps 765 mmHg 58%
    06:00 +11°C° 0 mm 1 mps 765 mmHg 54%
    07:00 +13°C° 0 mm 1 mps 765 mmHg 50%
    08:00 +15°C° 0 mm 1 mps 765 mmHg 46%
    09:00 +16°C° 0 mm 2 mps 765 mmHg 42%
    10:00 +17°C° 0 mm 2 mps 765 mmHg 39%
    11:00 +18°C° 0 mm 2 mps 764 mmHg 35%
    12:00 +18°C° 0 mm 2 mps 764 mmHg 35%
    13:00 +19°C° 0 mm 1 mps 764 mmHg 35%
    14:00 +19°C° 0 mm 1 mps 764 mmHg 35%
    15:00 +19°C° 0 mm 1 mps 763 mmHg 35%
    16:00 +18°C° 0 mm 0 mps 763 mmHg 35%
    17:00 +18°C° 0 mm 0 mps 763 mmHg 35%
    18:00 +16°C° 0 mm 0 mps 763 mmHg 39%
    19:00 +15°C° 0 mm 0 mps 763 mmHg 43%
    20:00 +14°C° 0 mm 1 mps 763 mmHg 46%
    21:00 +14°C° 0 mm 1 mps 763 mmHg 48%
    22:00 +13°C° 0 mm 1 mps 764 mmHg 49%
    23:00 +13°C° 0 mm 1 mps 764 mmHg 51%

    25 April, Thursday

    Time Temperature Precipitation Wind Pressure Humidity
    00:00 +12°C° 0 mm 1 mps 764 mmHg 53%
    01:00 +12°C° 0 mm 1 mps 764 mmHg 54%
    02:00 +12°C° 0 mm 1 mps 764 mmHg 56%
    03:00 +11°C° 0 mm 1 mps 764 mmHg 58%
    04:00 +11°C° 0 mm 1 mps 764 mmHg 59%
    05:00 +11°C° 0 mm 1 mps 764 mmHg 61%
    06:00 +13°C° 0 mm 1 mps 764 mmHg 57%
    07:00 +14°C° 0 mm 1 mps 764 mmHg 52%
    08:00 +16°C° 0 mm 1 mps 764 mmHg 48%
    09:00 +19°C° 0 mm 1 mps 764 mmHg 45%
    10:00 +20°C° 0 mm 1 mps 764 mmHg 41%
    11:00 +22°C° 0 mm 1 mps 763 mmHg 38%
    12:00 +22°C° 0 mm 1 mps 763 mmHg 37%
    13:00 +23°C° 0 mm 1 mps 763 mmHg 36%
    14:00 +23°C° 0 mm 1 mps 762 mmHg 36%
    15:00 +23°C° 0 mm 1 mps 762 mmHg 38%
    16:00 +22°C° 0 mm 1 mps 762 mmHg 40%
    17:00 +22°C° 0 mm 1 mps 761 mmHg 42%
    18:00 +20°C° 0 mm 2 mps 761 mmHg 46%
    19:00 +18°C° 0 mm 2 mps 761 mmHg 50%
    20:00 +17°C° 0 mm 2 mps 761 mmHg 54%
    21:00 +16°C° 0 mm 2 mps 761 mmHg 56%
    22:00 +16°C° 0 mm 2 mps 761 mmHg 59%
    23:00 +15°C° 0 mm 2 mps 761 mmHg 61%

    26 April, Friday

    Time Temperature Precipitation Wind Pressure Humidity
    00:00 +15°C° 0 mm 2 mps 761 mmHg 62%
    01:00 +14°C° 0 mm 2 mps 761 mmHg 64%
    02:00 +14°C° 0 mm 2 mps 760 mmHg 65%
    03:00 +13°C° 0 mm 2 mps 760 mmHg 67%
    04:00 +13°C° 0 mm 1 mps 760 mmHg 68%
    05:00 +13°C° 0 mm 1 mps 760 mmHg 70%
    06:00 +15°C° 0 mm 2 mps 760 mmHg 64%
    07:00 +16°C° 0 mm 2 mps 760 mmHg 59%
    08:00 +18°C° 0 mm 2 mps 760 mmHg 53%
    09:00 +20°C° 0 mm 3 mps 760 mmHg 50%
    10:00 +21°C° 0 mm 4 mps 759 mmHg 46%
    11:00 +22°C° 0 mm 4 mps 759 mmHg 43%
    12:00 +22°C° 0 mm 4 mps 759 mmHg 43%
    13:00 +22°C° 0 mm 4 mps 758 mmHg 42%
    14:00 +22°C° 0 mm 4 mps 758 mmHg 42%
    15:00 +22°C° 0 mm 4 mps 757 mmHg 43%
    16:00 +22°C° 0 mm 4 mps 757 mmHg 44%
    17:00 +22°C° 0 mm 3 mps 756 mmHg 46%
    18:00 +21°C° 0 mm 4 mps 756 mmHg 49%
    19:00 +19°C° 0 mm 4 mps 756 mmHg 53%
    20:00 +18°C° 0 mm 4 mps 756 mmHg 57%
    21:00 +17°C° 0 mm 4 mps 756 mmHg 59%
    22:00 +17°C° 0 mm 4 mps 756 mmHg 61%
    23:00 +15°C° 0 mm 5 mps 756 mmHg 62%
    Show more